This is the latest recevied weather packets stored in our database for station/object HK3BJ-11. If no packets are shown the sender has not sent any weather packets the latest 10 day(s).
| Time | Temp. | Humidity | Pressure | Rain* | Wind** | Luminosity | Snow |
|---|---|---|---|---|---|---|---|
| 1787657243 | 8.33° C | 91% | 1021 hPa | 0 mm | - | - | - |
| 1787656297 | 7.22° C | 91% | 1021 hPa | 0 mm | - | - | - |
| 1787655352 | 9.44° C | 91% | 1021 hPa | 0 mm | - | - | - |
| 1787654407 | 8.33° C | 91% | 1021 hPa | 0 mm | - | - | - |
| 1787653464 | 7.22° C | 91% | 1021 hPa | 0 mm | - | - | - |
| 1787652518 | 9.44° C | 92% | 1021 hPa | 0 mm | - | - | - |
| 1787651571 | 8.33° C | 92% | 1021 hPa | 0 mm | - | - | - |
| 1787650628 | 7.22° C | 92% | 1021 hPa | 0 mm | - | - | - |
| 1787649686 | 9.44° C | 92% | 1020 hPa | 0 mm | - | - | - |
| 1787648745 | 8.33° C | 92% | 1020 hPa | 0 mm | - | - | - |
| 1787647801 | 7.22° C | 92% | 1020 hPa | 0 mm | - | - | - |
| 1787646857 | 9.44° C | 88% | 1020 hPa | 0 mm | - | - | - |
| 1787645916 | 8.33° C | 88% | 1020 hPa | 0 mm | - | - | - |
| 1787644974 | 7.22° C | 88% | 1020 hPa | 0 mm | - | - | - |
| 1787644030 | 10° C | 85% | 1020 hPa | 0 mm | - | - | - |
| 1787643082 | 8.89° C | 85% | 1020 hPa | 0 mm | - | - | - |
| 1787642138 | 7.78° C | 85% | 1020 hPa | 0 mm | - | - | - |
| 1787641196 | 6.67° C | 85% | 1020 hPa | 0 mm | - | - | - |
| 1787640253 | 10° C | 83% | 1020 hPa | 0 mm | - | - | - |
| 1787639309 | 11.67° C | 80% | 1021 hPa | 0 mm | - | - | - |
| 1787638363 | 11.67° C | 84% | 1021 hPa | 0 mm | - | - | - |
| 1787637422 | 11.67° C | 84% | 1021 hPa | 0 mm | - | - | - |
| 1787636480 | 11.67° C | 82% | 1021 hPa | 0 mm | - | - | - |
| 1787635534 | 11.67° C | 78% | 1021 hPa | 0 mm | - | - | - |
| 1787634587 | 11.67° C | 80% | 1021 hPa | 0 mm | - | - | - |
* Rain latest hour (hover to see other rain measurements)
** Current wind speed in m/s (hover to see current wind gust speed)